Theta_e
336 329 325 327 324 329 327 322 322 329 328 326 329 329 322 315 318 320 323 330 333 335 335 333 332 331 331 333 333 333 334 335 335 336 335 335 335 335 335 334 333 333 332
337 333 325 320 316 318 320 320 328 333 331 333 329 325 317 312 313 319 322 322 321 327 326 328 328 329 330 331 330 330 328 331 331 332 332 331 332 333 332 331 331 332 332
337 332 320 317 316 317 317 321 328 329 334 333 327 318 313 311 312 319 330 323 318 316 314 314 318 322 325 322 321 321 321 324 326 328 330 329 330 329 330 330 329 329 330
338 327 318 314 312 312 315 316 325 331 334 330 318 313 311 310 314 326 327 327 317 315 313 311 311 311 313 314 316 316 317 320 329 329 330 330 330 328 327 324 324 326 325
335 335 317 315 312 312 313 316 327 331 331 326 315 310 309 310 313 316 329 328 321 314 316 313 312 311 312 313 317 318 323 326 327 329 328 328 330 325 323 325 327 326 325
337 334 317 316 315 313 313 313 323 330 330 320 315 311 309 309 311 313 322 327 328 317 312 316 318 316 316 314 315 317 321 324 326 326 325 324 324 324 324 325 324 324 324
339 332 318 317 318 318 316 314 316 321 322 319 316 314 311 309 309 310 318 327 322 321 319 322 326 326 322 319 319 319 320 324 325 325 325 323 323 323 323 322 322 321 322
336 334 319 319 319 320 319 317 315 316 322 319 317 315 314 312 310 309 312 327 327 324 324 325 325 324 324 317 316 320 319 322 323 324 323 322 321 320 321 321 321 321 320
337 335 323 320 320 320 320 320 318 317 318 319 318 317 316 315 313 311 310 323 327 325 320 318 318 317 315 314 317 319 318 318 323 323 322 320 319 319 320 320 319 319 319
337 339 334 326 321 321 321 321 321 320 320 320 320 319 318 317 315 314 311 310 319 324 318 316 314 313 314 314 315 316 317 321 322 322 321 317 315 317 316 318 319 318 317
336 336 336 334 328 324 322 322 322 322 322 321 322 322 321 319 318 316 313 311 310 314 312 311 312 312 313 312 313 315 318 322 321 321 320 316 315 314 310 308 311 314 315
335 337 334 336 333 328 325 324 323 323 323 323 323 323 323 322 320 320 314 311 310 310 311 310 311 312 313 319 316 316 322 321 321 320 319 316 315 315 313 308 305 306 308
335 333 330 331 335 331 329 327 325 325 325 325 325 325 325 324 323 321 320 315 314 312 313 311 311 312 314 317 320 321 322 320 321 320 318 316 316 315 314 312 307 305 305
335 335 329 330 330 332 332 330 329 327 326 326 326 326 326 325 325 324 323 320 317 315 316 314 313 314 315 316 317 318 319 320 321 319 319 318 317 317 316 314 312 309 304
334 335 332 329 329 330 331 331 331 330 329 328 328 327 327 327 326 326 325 324 320 319 318 318 317 318 319 319 319 319 319 318 318 318 318 317 317 317 317 317 316 314 311
333 334 335 331 329 329 333 332 331 330 331 329 329 329 328 328 328 327 327 326 325 322 321 320 320 320 320 320 320 319 319 318 318 318 318 318 318 318 317 317 317 317 316
332 334 334 334 332 332 333 333 333 332 332 331 330 330 329 329 329 328 328 328 327 326 324 323 322 321 321 322 321 321 320 319 319 319 318 318 318 318 318 318 317 317 316
332 333 335 333 329 327 328 329 330 329 329 329 330 329 328 328 329 328 327 326 325 325 325 324 323 323 322 322 321 321 321 320 320 319 319 319 319 318 318 318 318 318 317
332 332 334 334 323 325 326 328 329 329 330 330 330 329 329 327 327 327 326 325 326 326 325 324 324 324 323 322 322 322 322 322 322 322 322 322 321 321 320 319 319 318 318
330 331 332 334 331 325 328 330 330 331 331 331 331 331 331 330 328 327 326 325 326 325 324 324 324 325 325 324 322 322 322 322 322 322 322 322 322 322 322 321 321 320 320
314 326 329 331 332 332 326 329 331 331 331 330 330 331 331 332 331 329 328 328 328 327 327 326 325 325 325 325 325 325 324 323 322 323 323 322 321 321 321 321 321 321 321
312 312 320 328 331 333 328 326 330 332 330 326 330 331 333 334 330 331 331 330 328 328 328 328 328 328 328 327 327 325 323 323 323 324 322 322 324 323 322 322 321 320 320
311 311 312 314 325 330 331 327 330 335 332 330 329 331 329 332 329 329 330 329 329 329 328 328 328 328 328 327 327 324 321 322 322 323 322 322 323 323 322 322 322 321 321
312 312 312 311 312 319 327 329 327 329 331 330 332 331 331 331 331 329 327 328 328 328 326 327 328 328 327 326 325 324 325 324 320 321 321 321 322 321 321 321 322 321 321
313 312 311 310 310 311 313 320 326 328 331 329 327 328 327 328 328 329 327 325 326 325 325 325 325 326 327 326 325 324 324 324 322 320 317 318 320 321 321 320 320 320 320
312 313 313 312 311 310 310 311 321 321 326 326 326 325 324 324 325 325 325 324 324 324 323 324 324 324 324 324 324 324 323 323 322 320 321 320 318 318 317 318 319 319 319
Wind_Speed
14 14 13 11 6 7 8 7 9 7 7 7 9 10 9 9 8 7 6 7 7 7 7 6 7 10 10 12 12 13 14 14 14 15 15 15 16 16 16 14 16 16 15
17 14 13 9 7 7 8 10 11 9 8 8 9 11 10 9 9 10 12 12 11 8 9 11 12 11 11 11 10 11 11 12 12 12 11 10 10 11 14 13 13 14 15
16 14 13 10 8 8 10 11 12 9 8 8 11 11 9 10 10 15 14 14 13 12 11 11 11 11 11 8 9 10 9 10 11 16 14 15 14 11 9 11 10 9 8
12 14 12 10 10 10 10 11 13 9 7 7 10 10 10 10 11 15 16 11 11 13 12 12 10 10 11 11 12 13 13 13 15 14 14 12 12 11 10 9 10 9 6
15 12 12 11 11 12 11 14 14 9 6 6 9 10 10 9 10 14 15 9 9 12 12 12 12 13 12 12 12 14 16 16 15 11 12 9 11 5 8 10 11 10 8
14 12 13 11 11 11 11 13 12 9 6 7 8 10 10 9 10 11 13 10 10 11 13 13 12 12 11 11 12 12 14 17 11 10 7 3 7 7 7 9 8 7 4
11 11 13 11 11 11 11 10 10 8 6 7 9 10 9 9 10 10 11 10 7 11 13 13 12 11 11 12 12 14 13 17 10 7 7 5 5 5 4 4 3 2 0
14 11 13 12 11 10 10 10 9 8 6 6 7 9 8 8 9 9 10 10 7 9 9 11 11 10 10 10 10 10 10 14 8 7 5 3 4 4 1 1 2 2 2
13 14 12 11 11 10 10 9 8 8 6 6 6 8 7 7 7 8 8 10 7 5 5 6 8 9 9 9 8 7 7 9 8 3 4 4 8 4 1 2 2 1 3
13 12 10 10 9 9 8 8 7 6 5 5 5 6 6 5 5 6 6 5 5 5 4 3 5 6 6 6 6 6 8 12 6 6 4 7 11 2 6 0 3 2 3
15 13 12 11 10 9 8 8 7 6 5 4 3 3 3 4 4 3 4 3 3 3 4 5 4 4 3 3 4 5 6 2 3 3 7 7 9 10 8 4 2 2 3
17 18 17 13 11 12 11 10 8 7 6 5 4 2 2 1 1 2 1 1 1 0 3 3 4 3 2 3 4 3 5 2 2 1 6 7 9 10 10 9 8 5 2
19 19 20 18 13 13 12 11 10 9 8 8 6 5 3 2 1 1 0 1 1 1 1 2 2 2 1 1 3 1 3 2 2 1 7 8 8 8 10 10 9 7 5
19 19 21 20 19 16 13 14 12 11 11 9 8 7 5 4 2 2 2 2 2 2 2 1 1 2 2 2 2 2 2 1 3 5 7 8 9 9 9 11 9 10 9
19 18 20 22 21 20 19 17 14 12 12 11 11 9 7 6 6 5 5 4 4 4 3 3 3 3 3 4 4 4 4 4 4 5 7 10 10 10 11 11 11 11 10
19 19 18 20 22 21 20 20 19 17 13 13 13 11 10 10 10 9 8 8 7 6 6 5 5 4 4 5 6 6 7 8 9 9 9 13 13 12 12 12 14 14 13
19 19 19 18 19 21 21 20 19 18 17 15 14 14 14 13 13 12 11 11 10 8 8 8 10 10 11 11 12 14 14 13 14 14 15 15 17 17 15 13 15 16 16
17 19 18 21 21 19 19 18 18 17 16 15 15 14 14 14 15 15 15 14 14 13 14 14 13 15 17 18 19 20 20 22 21 21 22 22 23 23 25 23 20 19 20
18 18 20 20 21 20 20 20 19 18 17 17 16 15 14 14 14 14 15 15 16 17 16 16 17 18 20 21 23 24 26 26 28 28 27 28 27 28 29 29 29 28 27
18 19 20 21 22 23 23 23 22 22 22 22 22 20 18 17 16 15 14 14 17 17 18 19 21 23 23 25 27 28 28 30 30 31 31 31 31 32 32 32 32 32 31
20 21 21 22 21 22 25 25 25 26 25 24 23 23 21 19 21 20 19 20 21 19 21 23 25 26 28 27 31 33 34 37 35 37 37 37 36 37 37 36 35 36 34
21 22 22 22 20 21 25 25 25 24 26 24 24 23 23 22 22 24 24 24 25 24 25 26 29 31 31 32 35 34 32 33 40 37 34 35 33 35 36 35 37 35 34
18 22 25 24 21 19 21 20 22 25 26 22 22 22 21 20 21 22 25 27 27 30 29 31 32 34 35 40 34 36 21 18 23 30 28 29 32 36 35 38 36 36 34
9 12 17 23 23 21 19 17 19 20 20 19 17 18 19 18 17 18 20 22 23 24 26 26 27 27 30 36 37 38 40 42 35 27 28 28 38 40 45 44 43 43 40
6 6 6 12 18 20 20 18 17 17 18 15 13 13 13 15 17 17 18 19 20 22 24 25 26 28 29 34 34 38 38 39 41 42 43 38 44 47 46 45 45 45 43
10 10 9 8 9 11 13 13 12 10 9 11 10 11 13 13 15 17 17 18 19 21 25 26 27 30 31 35 35 37 39 40 40 40 45 49 50 51 49 46 47 45 44
Wind_Direction
146 160 156 153 165 138 124 121 102 95 90 86 102 86 81 94 107 116 145 170 158 132 109 107 110 106 105 109 101 97 94 90 93 95 94 96 100 94 87 80 82 84 86
144 156 157 153 150 133 130 109 107 104 85 81 73 74 82 96 100 98 83 92 121 125 104 92 93 103 112 111 112 104 104 99 84 80 78 77 82 93 81 84 91 90 96
145 166 147 148 147 135 126 118 121 111 103 82 59 61 83 91 87 90 88 84 91 96 102 102 98 97 104 106 87 87 82 88 89 82 75 69 73 64 89 93 96 98 97
143 145 142 139 132 132 122 125 117 120 118 69 56 70 83 90 89 93 92 84 78 87 88 90 92 90 93 89 90 93 94 96 87 99 75 87 81 89 82 84 84 83 90
142 140 139 127 133 131 127 123 126 132 119 83 75 78 84 91 87 88 99 84 70 82 87 86 83 90 98 98 97 92 91 92 84 91 97 75 75 105 90 92 100 99 82
155 144 132 128 123 121 127 129 134 136 117 87 87 80 82 94 90 86 107 101 83 65 81 82 78 85 88 93 94 92 92 87 76 67 78 89 80 76 90 108 104 90 86
148 151 137 132 130 125 124 126 143 146 123 98 84 83 84 89 89 88 92 105 94 74 84 82 86 89 89 84 93 94 92 92 74 65 78 66 81 95 103 130 128 122 159
152 150 145 141 136 132 131 133 142 150 129 104 81 79 82 87 91 89 97 92 98 81 88 90 95 93 89 75 82 91 74 79 56 63 65 44 40 349 169 153 135 195 177
167 152 153 153 149 145 139 140 144 148 137 110 84 78 78 79 82 85 94 111 120 107 96 80 91 84 83 71 73 72 52 72 62 79 60 33 14 3 130 139 118 124 110
180 158 160 167 160 156 152 153 155 156 144 116 102 88 80 77 78 78 89 105 126 130 131 123 92 85 76 66 57 51 46 65 68 37 353 8 8 328 307 53 136 144 118
181 180 172 178 172 179 182 181 178 177 175 161 143 112 94 81 82 92 89 93 100 116 127 138 123 99 77 49 37 36 67 82 64 77 292 2 12 12 1 325 284 156 147
185 204 181 183 188 192 196 196 198 197 197 201 194 178 118 113 116 169 128 118 124 151 121 111 118 114 61 0 10 36 61 13 31 34 293 353 1 5 9 7 349 314 288
191 207 203 197 193 202 204 208 212 210 213 217 221 213 211 220 199 237 296 220 273 11 42 119 148 158 201 198 263 236 225 46 303 318 311 354 352 353 352 359 354 341 318
203 206 212 211 211 207 213 217 220 222 225 230 234 234 235 244 264 270 281 271 264 300 322 325 229 246 274 294 299 275 250 217 299 308 302 347 352 347 343 341 345 341 332
207 210 221 220 222 224 222 222 215 221 231 236 242 245 251 259 265 266 265 272 272 279 282 283 275 286 302 317 325 318 316 323 303 321 316 335 334 331 328 327 332 332 323
207 210 215 228 229 232 234 235 233 232 234 237 245 253 252 256 261 263 267 270 273 274 276 280 280 281 298 313 317 302 298 298 291 288 292 300 311 309 305 304 310 312 312
209 208 211 219 233 232 237 237 240 240 238 243 251 253 257 257 262 261 268 275 280 287 288 289 285 277 271 277 279 279 275 272 275 277 279 280 286 298 299 293 290 293 291
211 211 210 220 225 231 233 236 240 242 242 244 248 258 258 260 262 260 260 259 265 267 272 276 286 287 285 281 281 280 284 283 283 283 282 282 284 282 287 290 289 284 283
217 217 215 220 231 231 233 237 241 245 248 251 249 249 257 257 259 262 261 252 259 263 268 277 277 277 276 278 280 280 280 281 282 283 283 281 283 283 284 283 285 284 283
221 220 222 222 232 238 235 238 242 246 249 250 255 256 254 258 260 261 263 263 261 264 272 275 278 279 279 279 280 280 279 279 279 281 283 282 282 282 282 281 279 283 283
229 224 223 223 224 230 238 240 244 249 254 255 256 258 262 257 261 262 262 265 271 278 275 276 275 276 278 277 273 276 276 278 281 283 284 283 283 284 280 280 280 277 279
235 230 225 224 222 224 241 241 244 250 259 263 265 264 264 263 259 263 267 269 272 278 277 278 277 278 278 278 279 272 275 286 284 294 284 288 285 286 283 283 279 278 280
233 232 232 226 219 219 238 243 242 242 256 258 263 266 268 266 265 265 271 273 274 277 279 280 281 281 284 282 285 277 273 274 280 287 280 276 278 285 280 289 280 277 278
225 231 232 229 224 218 216 222 245 243 245 257 266 268 275 277 274 270 269 272 277 278 278 279 280 282 283 283 283 284 280 278 276 286 278 274 280 283 284 280 282 280 280
155 167 188 208 213 217 218 219 235 241 240 245 251 263 271 277 279 279 275 276 278 281 282 282 283 286 288 287 290 288 286 288 283 278 282 286 291 289 289 287 285 284 283
123 120 124 143 175 199 211 216 213 239 237 243 253 261 264 264 275 283 286 283 277 276 279 280 283 286 286 288 289 289 289 286 284 282 287 290 295 293 291 291 286 288 288